This demonstration page uses our WeatherBlox Daily Observations layout. Learn more.

Left ArrowRight Arrow

39.01783, -85.05884

Hourly Observations for August 16, 2015

Temp ( °F °C ) Dew Point ( °F °C ) Humidity (%) Winds ( mph kmh ) Pressure ( in mb ) Visibility ( mi km ) Precip ( " mm )
12:52 am 00:52 Clear 65 18.3 63 17.2 93 93 N N/A 30.14 1021 7 11.26538 N/A
1:52 am 01:52 Clear 67 19.4 65 18.3 93 93 N N/A 30.13 1020 8 12.87472 N/A
2:52 am 02:52 Clear 68 20 64 17.8 87 87 NW 5 7 30.13 1020 10 16.0934 N/A
3:52 am 03:52 Clear 65 18.3 63 17.2 93 93 W 5 7 30.13 1020 8 12.87472 N/A
4:52 am 04:52 Clear 63 17.2 63 17.2 100 100 N N/A 30.12 1020 8 12.87472 N/A
5:52 am 05:52 Clear 66 18.9 64 17.8 93 93 N N/A 30.11 1020 9 14.48406 N/A
6:22 am 06:22 Clear with Mist and Fog 63 17 61 16 94 94 S 3 6 30.15 1021 1.5 2.41401 N/A
6:26 am 06:26 Partly Cloudy 61 16 61 16 100 100 S 5 7 30.15 1021 10 16.0934 N/A
6:52 am 06:52 Mostly Clear 64 17.8 63 17.2 96 96 N N/A 30.14 1021 10 16.0934 N/A
7:52 am 07:52 Mostly Sunny 65 18.3 64 17.8 97 97 N N/A 30.15 1021 10 16.0934 N/A
8:52 am 08:52 Sunny 73 22.8 67 19.4 81 81 N N/A 30.17 1022 7 11.26538 N/A
9:52 am 09:52 Sunny 77 25 67 19.4 71 71 SSW 3 6 30.18 1022 10 16.0934 N/A
10:52 am 10:52 Sunny 81 27.2 67 19.4 62 62 N N/A 30.18 1022 10 16.0934 N/A
11:52 am 11:52 Mostly Sunny 82 27.8 66 18.9 58 58 N N/A 30.18 1022 10 16.0934 N/A
12:52 pm 12:52 Mostly Sunny 84 28.9 66 18.9 55 55 VRB 3 6 30.16 1022 10 16.0934 N/A
1:52 pm 13:52 Partly Cloudy 86 30 65 18.3 49 49 W 7 11 30.14 1021 10 16.0934 N/A
2:52 pm 14:52 Partly Cloudy 86 30 64 17.8 48 48 N N/A 30.12 1020 10 16.0934 N/A
3:52 pm 15:52 Partly Cloudy 88 31.1 65 18.3 46 46 WNW 6 9 30.1 1019 10 16.0934 N/A
4:52 pm 16:52 Partly Cloudy 89 31.7 65 18.3 45 45 N 9 15 30.09 1019 10 16.0934 N/A
5:52 pm 17:52 Partly Cloudy 89 31.7 65 18.3 45 45 N N/A 30.07 1018 10 16.0934 N/A
6:52 pm 18:52 Partly Cloudy 86 30 65 18.3 49 49 SW 7 11 30.07 1018 10 16.0934 N/A
7:52 pm 19:52 Partly Cloudy 82 27.8 69 20.6 65 65 NW 8 13 30.08 1019 10 16.0934 N/A
8:52 pm 20:52 Partly Cloudy 79 26.1 69 20.6 72 72 NW 3 6 30.07 1018 10 16.0934 N/A
9:52 pm 21:52 Mostly Clear 78 25.6 68 20 71 71 N N/A 30.09 1019 10 16.0934 N/A
10:52 pm 22:52 Mostly Clear 74 23.3 68 20 82 82 N N/A 30.1 1019 10 16.0934 N/A
11:52 pm 23:52 Mostly Clear 71 21.7 67 19.4 87 87 N N/A 30.11 1020 9 14.48406 N/A

Powered by AerisWeather